Regional Weather Roundup
Issued by NWS

Home | Current Version | Previous Version | Text Only | Print | Product List | Glossary On
Versions: 1 2 3 4 5 6 7 8 9 10 11 12 13 14 15 16 17 18 19 20 21 22 23 24 25 26 27 28 29 30 31 32 33 34 35 36 37 38 39 40 41 42 43 44 45 46 47 48 49 50
000
ASUS44 KLIX 310712
RWRLA
LOUISIANA WEATHER ROUNDUP
NATIONAL WEATHER SERVICE NEW ORLEANS LA
200 AM CDT FRI JUL 31 2015

NOTE: "FAIR" INDICATES FEW OR NO CLOUDS BELOW 12,000 FEET WITH NO
      SIGNIFICANT WEATHER AND/OR OBSTRUCTIONS TO VISIBILITY.
      SKY/WX - SKY CONDITION AND SIGNIFICANT WEATHER.
      TMP - AIR TEMPERATURE.    DP   - DEWPOINT TEMPERATURE.
      RH  - RELATIVE HUMIDITY.  PRES - PRESSURE.
      HX  - HEAT INDEX.         WCI  - WIND CHILL INDEX.

*  THESE STATIONS ARE NOT NWS OR FAA STATIONS AND ARE NOT UNDER
   NWS QUALITY CONTROL.

LAZ040-048-061>063-065-066-069-310800-
SOUTHEAST LOUISIANA

CITY           SKY/WX    TMP DP  RH WIND       PRES   REMARKS
N.O. AUDUBON     N/A     81  75  83 MISG        N/A
N.O. INTL ARPT CLOUDY    80  72  76 N6        29.94F
N.O. LAKEFRONT CLOUDY    82  73  74 N9        29.94F
N.O. DOWNTOWN* FAIR      82  73  74 CALM      29.95S
RESERVE*         N/A     77  74  91 CALM      29.95F
SLIDELL        MOCLDY    75  75 100 CALM      29.93F
BATON ROUGE    CLOUDY    77  75  93 CALM      29.96F
BOOTHVILLE     CLOUDY    83  77  82 N5        29.93F
BELLE CHASSE   CLOUDY    78  76  93 CALM      29.93F
BOGALUSA*        N/A     76  73  87 CALM      29.97S
GALLIANO*      NOT AVBL
NEW ROADS*     FAIR     N/A N/A N/A NW3       29.97F
GONZALES*      FAIR      75  75 100 CALM      29.95F
HAMMOND*       MOCLDY    75  72  88 N3        29.97F
HOUMA*         CLOUDY    76  74  92 N3        29.94F
PORT FOURCHON* SUNNY     81  77  89 NW7       29.95S

$$

LAZ041-044-053-054-310800-
SOUTHWEST LOUISIANA

CITY           SKY/WX    TMP DP  RH WIND       PRES   REMARKS
LAKE CHARLES   MOCLDY    78  76  93 NW5       29.99S
LAFAYETTE      MOCLDY    78  73  84 NW10      29.96F
PATTERSON      CLOUDY    75  73  94 CALM      29.98R
SALT POINT       N/A     77  75  93 CALM      29.94S
NEW IBERIA     CLOUDY    77  75  93 NW3       29.96F
CHENAULT AIRPK MOCLDY    76  74  96 N3        29.99S

$$

LAZ027-028-310800-
CENTRAL LOUISIANA

CITY           SKY/WX    TMP DP  RH WIND       PRES   REMARKS
FORT POLK      MOCLDY    77  74  92 N5        30.00F
ALEXANDRIA INT MOCLDY    76  76 100 NW5       29.99S FOG
ALEXANDRIA     MOCLDY    78  74  87 W3        30.00S

$$

LAZ001-002-310800-
NORTHWEST LOUISIANA

CITY           SKY/WX    TMP DP  RH WIND       PRES   REMARKS
SHREVEPORT     MOCLDY    80  71  74 NE6       30.05R
BARKSDALE AFB  MOCLDY    76  72  86 CALM      30.04S
DTN SHREVEPORT PTCLDY    77  71  82 NE3       30.05S

$$

LAZ014-016-310800-
NORTHEAST LOUISIANA

CITY           SKY/WX    TMP DP  RH WIND       PRES   REMARKS
MONROE         PTCLDY    73  68  84 N6        30.04R
TALLULAH       PTCLDY    78  68  71 NE9       30.00S

$$



USA.gov is the U.S. government's official web portal to all federal, state and local government web resources and services.